TimeEST,TemperatureF,Dew PointF,Humidity,Sea Level PressureIn,VisibilityMPH,Wind Direction,Wind SpeedMPH,Gust SpeedMPH,PrecipitationIn,Events,Conditions,WindDirDegrees,DateUTC
12:15 AM,17.6,10.4,73,29.99,1.8,SE,6.9,-,0.00,Snow,Light Snow,140,2013-12-17 05:15:00
12:53 AM,18.0,14.0,84,30.02,1.0,SSE,5.8,-,0.00,Snow,Light Snow,150,2013-12-17 05:53:00
1:27 AM,19.4,14.0,80,29.96,1.2,SSE,6.9,-,0.00,Snow,Light Snow,150,2013-12-17 06:27:00
1:38 AM,19.4,14.0,80,29.95,1.2,SSE,6.9,-,0.00,Snow,Light Snow,160,2013-12-17 06:38:00
1:53 AM,19.0,15.1,85,29.99,1.2,SSE,6.9,-,0.00,Snow,Light Snow,160,2013-12-17 06:53:00
2:02 AM,19.4,15.8,86,29.94,1.5,SSE,8.1,-,0.00,Snow,Light Snow,160,2013-12-17 07:02:00
2:14 AM,19.4,15.8,86,29.94,1.0,SSE,8.1,-,0.00,Snow,Light Snow,150,2013-12-17 07:14:00
2:19 AM,19.4,15.8,86,29.94,2.0,SSE,5.8,-,0.00,Snow,Light Snow,150,2013-12-17 07:19:00
2:27 AM,19.4,15.8,86,29.94,4.0,SSE,8.1,-,0.00,Snow,Light Snow,150,2013-12-17 07:27:00
2:36 AM,21.2,15.8,80,29.94,1.8,SSE,5.8,-,0.00,Snow,Light Snow,150,2013-12-17 07:36:00
2:53 AM,21.0,16.0,81,29.97,1.5,SSE,6.9,-,0.00,Snow,Light Snow,160,2013-12-17 07:53:00
3:16 AM,21.2,17.6,86,29.93,1.0,South,6.9,-,0.00,Snow,Light Snow,170,2013-12-17 08:16:00
3:23 AM,21.2,17.6,86,29.92,1.2,South,6.9,-,0.00,Snow,Light Snow,170,2013-12-17 08:23:00
3:30 AM,21.2,17.6,86,29.92,2.0,SSE,5.8,-,0.00,Snow,Light Snow,160,2013-12-17 08:30:00
3:34 AM,21.2,17.6,86,29.92,3.0,South,5.8,-,0.00,Snow,Light Snow,180,2013-12-17 08:34:00
3:48 AM,21.2,17.6,86,29.92,1.8,Variable,4.6,-,0.00,Snow,Light Snow,0,2013-12-17 08:48:00
3:49 AM,21.9,18.0,85,29.96,1.8,Variable,4.6,-,0.00,Snow,Light Snow,0,2013-12-17 08:49:00
4:10 AM,21.2,17.6,86,29.91,2.5,South,6.9,-,0.00,Snow,Light Snow,170,2013-12-17 09:10:00
4:18 AM,21.2,17.6,86,29.91,4.0,SSE,9.2,-,0.00,Snow,Light Snow,160,2013-12-17 09:18:00
4:53 AM,23.0,18.0,81,29.94,7.0,SSW,5.8,-,0.00,,Overcast,210,2013-12-17 09:53:00
5:35 AM,23.0,19.4,86,29.89,7.0,SSW,5.8,-,N/A,,Overcast,200,2013-12-17 10:35:00
5:53 AM,24.1,19.9,84,29.94,7.0,SSW,4.6,-,N/A,,Overcast,210,2013-12-17 10:53:00
6:53 AM,25.0,21.0,85,29.95,5.0,WSW,9.2,-,N/A,,Overcast,240,2013-12-17 11:53:00
7:53 AM,25.0,19.9,81,29.98,6.0,West,15.0,23.0,N/A,,Haze,260,2013-12-17 12:53:00
8:53 AM,24.1,19.0,81,30.02,5.0,West,13.8,-,N/A,,Haze,260,2013-12-17 13:53:00
9:53 AM,23.0,18.0,81,30.06,3.0,WSW,9.2,-,0.00,,Haze,250,2013-12-17 14:53:00
10:05 AM,23.0,17.6,80,30.01,5.0,WSW,8.1,-,N/A,,Haze,240,2013-12-17 15:05:00
10:43 AM,23.0,17.6,80,30.00,2.5,WSW,8.1,-,0.00,Snow,Light Snow,240,2013-12-17 15:43:00
10:53 AM,23.0,18.0,81,30.04,3.0,WSW,8.1,-,0.00,,Haze,240,2013-12-17 15:53:00
11:09 AM,24.8,17.6,74,29.99,5.0,SW,8.1,-,N/A,,Haze,230,2013-12-17 16:09:00
11:53 AM,24.1,19.0,81,29.97,5.0,SSW,5.8,-,N/A,,Haze,210,2013-12-17 16:53:00
12:02 PM,24.8,19.4,80,29.96,5.0,SW,6.9,-,N/A,,Haze,220,2013-12-17 17:02:00
12:53 PM,25.0,18.0,75,29.99,8.0,SW,9.2,-,N/A,,Overcast,230,2013-12-17 17:53:00
1:45 PM,24.8,17.6,74,29.93,10.0,SW,9.2,-,N/A,,Overcast,220,2013-12-17 18:45:00
1:53 PM,25.0,18.0,75,29.97,10.0,SSW,9.2,-,N/A,,Overcast,210,2013-12-17 18:53:00
2:37 PM,24.8,17.6,74,29.92,10.0,SSW,9.2,-,N/A,,Mostly Cloudy,210,2013-12-17 19:37:00
2:53 PM,26.1,17.1,69,29.95,10.0,South,9.2,-,N/A,,Mostly Cloudy,180,2013-12-17 19:53:00
3:53 PM,26.1,17.1,69,29.95,10.0,SSW,10.4,-,N/A,,Mostly Cloudy,200,2013-12-17 20:53:00
4:53 PM,26.1,17.1,69,29.94,10.0,South,10.4,-,N/A,,Overcast,190,2013-12-17 21:53:00
5:53 PM,25.0,17.1,72,29.96,8.0,SSW,12.7,-,N/A,,Overcast,200,2013-12-17 22:53:00
6:44 PM,24.8,17.6,74,29.94,1.8,SW,10.4,-,0.00,Snow,Light Snow,220,2013-12-17 23:44:00
6:53 PM,24.1,18.0,77,29.98,1.2,SSW,9.2,-,0.00,Snow,Light Snow,210,2013-12-17 23:53:00
7:23 PM,24.8,19.4,80,29.95,2.0,SSW,6.9,-,0.00,Snow,Light Snow,210,2013-12-18 00:23:00
7:32 PM,24.8,19.4,80,29.95,1.8,SW,9.2,-,0.00,Snow,Light Snow,220,2013-12-18 00:32:00
7:41 PM,24.8,19.4,80,29.95,3.0,SSW,8.1,-,0.00,Snow,Light Snow,210,2013-12-18 00:41:00
7:53 PM,24.1,18.0,77,29.98,7.0,SW,8.1,-,0.00,,Overcast,220,2013-12-18 00:53:00
8:18 PM,24.8,19.4,80,29.95,7.0,SSW,9.2,-,N/A,,Overcast,210,2013-12-18 01:18:00
8:53 PM,24.1,19.0,81,29.99,7.0,SW,8.1,-,N/A,,Overcast,220,2013-12-18 01:53:00
9:13 PM,24.8,19.4,80,29.95,6.0,SW,6.9,-,0.00,Snow,Light Snow,230,2013-12-18 02:13:00
9:51 PM,24.8,19.4,80,29.96,6.0,WSW,9.2,-,0.00,Snow,Light Snow,240,2013-12-18 02:51:00
9:53 PM,25.0,19.0,78,30.00,6.0,WSW,9.2,-,0.00,Snow,Light Snow,240,2013-12-18 02:53:00
10:38 PM,24.8,19.4,80,29.97,2.0,WSW,9.2,-,0.00,Snow,Light Snow,240,2013-12-18 03:38:00
10:53 PM,25.0,19.9,81,30.01,1.8,SW,9.2,-,0.00,Snow,Light Snow,230,2013-12-18 03:53:00
11:02 PM,24.8,19.4,80,29.98,3.0,SW,9.2,-,0.00,Snow,Light Snow,230,2013-12-18 04:02:00
11:09 PM,24.8,19.4,80,29.98,4.0,SW,9.2,-,0.00,Snow,Light Snow,230,2013-12-18 04:09:00
11:53 PM,26.1,21.0,81,30.02,2.5,WSW,10.4,-,0.00,Snow,Light Snow,240,2013-12-18 04:53:00